Location: Cold Norton
(51.6667°N, 0.6667°E)
Time: 02:16:18
(UTC+00:00)

COSMO-SKYMED 1 - Pass Details

Date: 18 November 2025
Orbit: 579 x 581 km, 97.9° (Epoch: 13 December)

Event Time Altitude Azimuth Distance (km) Brightness Sun altitude
Exits shadow 17:26:27 19° 84° (E) 1,404 3.8 -12.7°
Maximum altitude 17:26:49 19° 91° (E) 1,394 3.8 -12.7°
Drops below altitude 10° 17:29:48 10° 138° (SE) 1,894 4.8 -13.2°
Sets 17:32:27 0° 156° (SSE) 2,787 5.8 -13.6°
